Погода в Ракпасе

Россия / Республика Коми     62°40′52″N   51°06′48″E
темп.,
°C
ветер,
м/с
пор.,
м/с
влажн.,
%
обл.,
%
осадки,
мм/ч
давл.,
гПа
погр.,
м
14 мая, пт
пт1400:00+16ююз26612 0.0 1018105
03:00+15ююз28685 0.0 1018144
06:00+19ююз395626 0.0 1017306
09:00+22ююз475231 0.1 1016933
12:00+26юз684187 0.0 10142473
15:00+24юз69400 0.0 10142094
18:00+24зюз49375 0.0 10132361
21:00+18зюз2852100 0.0 1014184
15 мая, сб
сб1500:00+15зюз2859100 0.0 1014164
03:00+13зюз256620 0.0 1014101
06:00+16зюз2556100 0.0 1014260
09:00+20зюз4641100 0.0 10141161
12:00+21зюз4733100 0.0 10142024
15:00+22зюз4634100 0.0 10142451
18:00+19з2654100 0.0 1014561
21:00+14ююз117371 0.0 101411
16 мая, вс
вс1600:00+13вюв2279100 0.0 101337
03:00+12юв2583100 0.0 1012122
06:00+14юв2579100 0.0 1011297
09:00+18ю357491 0.8 1010856
12:00+24юз49408 0.3 10082601
15:00+26юз610298 0.3 10073065
18:00+23зюз374066 0.0 1006695
21:00+17ююз22666 0.3 100641
17 мая, пн
пн1700:00+16юз41276100 1.1 1007446
03:00+14юз3118534 2.1 1007424
06:00+15юз4884100 0.1 1008631
09:00+15зюз4772100 0.2 10091088
12:00+14з4975100 0.2 10111015
15:00+13з4881100 0.6 10121022
18:00+11з3887100 0.1 1013662
21:00+11зсз3792100 0.2 1015499
18 мая, вт
вт1800:00+9с3691100 0.0 1017365
03:00+8с2588100 0.0 1018328
06:00+9св247430 0.0 1020455
09:00+14св22450 0.0 1020961
12:00+18всв22350 0.0 10201346
15:00+20всв22320 0.0 10201534
18:00+19в23350 0.0 10191244
21:00+13вюв385186 0.0 1020150